UVA9081 OTHH-LIMC

Flight info

Callsign UVA9081
Flight time N/A
Altitude 34000
Route TULUB M444 DAVUS L602 GADSI M860 RESAK/N0462F360 M860 SEPTU DCT VUSEB M860 NINVA UM860 ODALI UL852 NEGEM DCT ANASA/N0453F380 DCT SOMUN DCT PEVAL DCT VIC/N0448F370 DCT ADOSA DCT IDREK DCT ELTAR DCT NOBMI DCT PEXUG
Aircraft A319/M-SDE3FGHIRWY/LB1

Departure

Time 2026-02-20 06:55
Airport Hamad International Airport (OTHH)

Arrival

Time N/A
Airport Milan Malpensa International Airport (LIMC)
Time Latitude Longitude Altitude Speed Heading
2026-02-20 06:18 25.25489 51.62169 30 ft 0 kts 288°
2026-02-20 06:43 25.25489 51.62171 30 ft 1 kts 288°
2026-02-20 06:43 25.25483 51.62189 30 ft 3 kts 288°
2026-02-20 06:43 25.25477 51.62210 30 ft 3 kts 288°
2026-02-20 06:43 25.25471 51.62232 30 ft 3 kts 288°
2026-02-20 06:44 25.25464 51.62253 30 ft 3 kts 288°
2026-02-20 06:44 25.25458 51.62274 30 ft 3 kts 288°
2026-02-20 06:44 25.25452 51.62296 30 ft 3 kts 288°
2026-02-20 06:44 25.25446 51.62317 30 ft 3 kts 287°
2026-02-20 06:45 25.25439 51.62356 30 ft 1 kts 278°
2026-02-20 06:45 25.25439 51.62361 30 ft 0 kts 278°
2026-02-20 06:49 25.25440 51.62352 30 ft 2 kts 278°
2026-02-20 06:49 25.25454 51.62315 30 ft 7 kts 304°
2026-02-20 06:49 25.25490 51.62284 30 ft 7 kts 336°
2026-02-20 06:49 25.25538 51.62266 30 ft 8 kts 339°
2026-02-20 06:50 25.25588 51.62244 30 ft 8 kts 338°
2026-02-20 06:50 25.25641 51.62220 30 ft 9 kts 336°
2026-02-20 06:50 25.25698 51.62194 30 ft 9 kts 338°
2026-02-20 06:50 25.25760 51.62166 30 ft 10 kts 338°
2026-02-20 06:51 25.25829 51.62136 30 ft 11 kts 339°
2026-02-20 06:51 25.25892 51.62111 30 ft 7 kts 350°
2026-02-20 06:51 25.25930 51.62141 30 ft 8 kts 60°
2026-02-20 06:51 25.25923 51.62197 30 ft 8 kts 134°
2026-02-20 06:52 25.25866 51.62226 30 ft 9 kts 158°
2026-02-20 06:52 25.25805 51.62253 30 ft 10 kts 158°
2026-02-20 06:52 25.25743 51.62281 30 ft 10 kts 158°
2026-02-20 06:52 25.25679 51.62309 29 ft 10 kts 158°
2026-02-20 06:53 25.25616 51.62336 29 ft 10 kts 158°
2026-02-20 06:53 25.25572 51.62388 29 ft 10 kts 97°
2026-02-20 06:53 25.25598 51.62464 28 ft 12 kts 66°
2026-02-20 06:53 25.25635 51.62552 26 ft 12 kts 55°
2026-02-20 06:54 25.25691 51.62601 26 ft 10 kts 22°
2026-02-20 06:54 25.25752 51.62588 27 ft 0 kts 338°
2026-02-20 06:54 25.25780 51.62575 26 ft 17 kts 338°
2026-02-20 06:55 25.26121 51.62425 27 ft 91 kts 338°
2026-02-20 06:55 25.26915 51.62077 26 ft 156 kts 338°
2026-02-20 06:55 25.27989 51.61607 463 ft 166 kts 339°
2026-02-20 06:55 25.29056 51.61138 1125 ft 165 kts 339°
2026-02-20 06:56 25.30138 51.60662 1539 ft 174 kts 339°
2026-02-20 06:56 25.31334 51.60137 1689 ft 197 kts 339°
2026-02-20 06:56 25.32686 51.59542 1924 ft 221 kts 339°
2026-02-20 06:56 25.34242 51.59107 2203 ft 243 kts
2026-02-20 06:57 25.35968 51.59396 2702 ft 257 kts 15°
2026-02-20 06:57 25.37694 51.59988 3466 ft 262 kts 19°
2026-02-20 06:57 25.39444 51.60656 3873 ft 267 kts 19°
2026-02-20 06:57 25.41209 51.61312 3984 ft 267 kts 18°
2026-02-20 06:58 25.42980 51.61932 4002 ft 267 kts 17°
2026-02-20 06:58 25.44762 51.62515 4007 ft 267 kts 16°
2026-02-20 06:58 25.46550 51.63070 4008 ft 267 kts 15°
2026-02-20 06:58 25.47750 51.63419 4008 ft 267 kts 14°
2026-02-20 06:59 25.49551 51.63879 4008 ft 267 kts 12°
2026-02-20 06:59 25.51364 51.64310 4008 ft 267 kts 12°
2026-02-20 06:59 25.53184 51.64737 4008 ft 267 kts 12°
2026-02-20 06:59 25.55002 51.65164 4008 ft 267 kts 12°
2026-02-20 07:00 25.56822 51.65591 4004 ft 267 kts 11°
2026-02-20 07:00 25.58694 51.65714 4014 ft 268 kts 355°
2026-02-20 07:00 25.60519 51.65317 4613 ft 271 kts 347°
2026-02-20 07:00 25.62366 51.64855 5410 ft 273 kts 348°
2026-02-20 07:01 25.64230 51.64408 6205 ft 275 kts 348°
2026-02-20 07:01 25.66109 51.63964 6967 ft 277 kts 349°
2026-02-20 07:01 25.68002 51.63514 7722 ft 279 kts 349°
2026-02-20 07:01 25.69904 51.63060 8473 ft 281 kts 349°
2026-02-20 07:02 25.71816 51.62601 9229 ft 282 kts 349°
2026-02-20 07:02 25.73691 51.61937 9965 ft 285 kts 339°